SCP
0 0 0 0 0 0 0 0 0 0 0 0 0 0 0 0 0 0 0 0 0 0 0 0 0 0 0 0 0 0 0 0 0 0 0 0 0 0 0 0 0 0 0 0 0 0 0 0 0
0 0 0 0 0 0 0 0 0 0 0 0 0 0 0 0 0 0 0 0 0 0 0 0 0 0 0 0 0 0 0 0 0 0 0 0 0 0 0 0 0 0 0 0 0 0 0 0 0
0 0 0 0 0 0 0 0 0 0 0 0 0 0 0 0 0 0 0 0 0 0 0 0 0 0 0 0 0 0 0 0 0 0 0 0 0 0 0 0 0 0 0 0 0 0 0 0 0
0 0 0 0 0 0 0 0 0 0 0 0 0 0 0 0 0 0 0 0 0 0 0 0 0 0 0 0 0 0 0 0 0 0 0 0 0 0 0 0 0 0 0 0 0 0 0 0 0
0 0 0 0 0 0 0 0 0 0 0 0 0 0 0 0 0 0 0 0 0 0 0 0 0 0 0 0 0 0 0 0 0 0 0 0 0 0 0 0 0 0 0 0 0 0 0 0 0
0 0 0 0 0 0 0 0 0 0 0 0 0 0 0 0 0 0 0 0 0 0 0 0 0 0 0 0 0 0 0 0 0 0 0 0 0 0 0 0 0 0 0 0 0 0 0 0 0
0 0 0 0 0 0 0 0 0 0 0 0 0 0 -0 -0 0 0 0 0 0 0 0 0 0 0 0 0 0 0 0 0 0 0 0 0 0 0 0 0 0 0 0 0 0 0 0 0 0
0 0 0 0 0 0 0 0 0 0 0 0 0 0 -0 -0 -0 -0 0 0 0 0 0 0 0 0 0 0 0 0 0 0 0 0 0 0 0 0 0 0 0 0 0 0 0 0 0 0 0
0 0 0 0 0 0 0 0 0 0 0 -0 0 0 0 -0 -0 -0 -0 -0 -0 -0 0 0 0 0 0 0 0 0 0 0 0 0 0 0 0 0 0 0 0 0 0 0 0 0 0 0 0
0 0 0 0 0 0 0 0 0 0 0 0 0 0 0 0 0 -0 -0 -0 -0 -0 -0 -0 0 0 0 0 0 0 0 0 0 0 0 0 0 0 0 0 0 0 0 0 0 0 0 0 0
0 0 0 0 0 0 0 0 0 0 0 0 0 0 0 0 0 -0 -0 -0 -0 -0 -0 -0 -0 -0 0 0 0 0 0 0 0 0 0 0 0 0 0 0 0 0 0 0 0 0 0 0 0
0 0 0 0 0 0 0 0 0 0 0 0 0 0 0 0 0 0 -0 -0 -0 -0 -0 -0 -0 0 0 0 0 0 0 0 0 0 0 0 0 0 0 0 0 0 0 0 0 0 0 0 0
0 0 0 0 0 0 0 0 0 0 0 0 0 0 0 0 0 0 0 0 0 0 -0 -0 0 0 0 0 0 0 0 0 0 0 0 0 0 0 0 0 0 0 0 0 0 0 0 0 0
0 0 0 0 0 0 0 0 0 0 0 0 0 0 0 0 0 0 0 0 0 0 0 -0 -0 0 0 0 0 0 0 0 0 0 0 0 0 0 0 0 0 0 0 0 0 0 0 0 0
0 0 0 0 0 0 0 0 0 0 0 0 0 0 0 0 0 0 0 0 0 0 0 0 0 0 0 0 0 0 0 0 0 0 0 0 0 0 0 0 0 0 0 0 0 0 0 0 0
0 0 0 0 0 0 0 0 0 0 0 0 0 0 0 0 0 0 0 0 0 0 0 0 0 0 0 0 0 0 0 0 0 0 0 0 0 0 0 0 0 0 0 0 0 0 0 0 0
0 0 0 0 0 0 0 0 0 0 0 0 0 0 0 0 0 0 0 0 0 0 0 0 0 0 0 0 0 0 0 0 0 0 0 0 0 0 0 0 0 0 0 0 0 0 0 0 0
0 0 0 0 0 0 0 0 0 0 0 0 0 0 0 0 0 0 0 0 0 0 0 0 0 0 0 0 0 0 0 0 0 0 0 0 0 0 0 0 0 0 0 0 0 0 0 0 0
0 0 0 0 0 0 0 0 -0 0 0 0 0 0 0 0 0 0 -0 0 0 0 0 0 0 0 0 0 0 0 0 0 0 0 0 0 0 0 0 0 0 0 0 0 0 0 0 0 0
0 0 0 0 0 0 0 0 -0 0 0 0 0 0 0 0 0 0 0 0 0 0 0 0 0 0 0 0 0 0 0 0 0 0 0 0 0 0 0 0 0 0 0 0 0 0 0 0 0
0 0 0 0 0 0 0 0 0 0 0 0 0 0 0 0 0 0 0 0 0 0 0 0 0 0 0 0 0 0 0 0 0 0 0 0 0 0 0 0 0 0 0 0 0 0 0 0 0
0 0 0 0 0 0 0 0 0 0 0 0 0 0 0 0 0 0 0 0 0 0 0 0 0 0 0 0 0 0 0 0 0 0 0 0 0 0 0 0 0 0 0 0 0 0 0 0 0
0 0 0 0 0 0 0 0 0 0 0 0 0 0 0 0 0 0 0 0 0 0 0 0 0 0 0 0 0 0 0 0 0 0 0 0 0 0 0 0 0 0 0 0 0 0 0 0 0
0 0 0 0 0 0 0 0 0 0 0 0 0 0 0 0 0 0 0 0 0 0 0 0 0 0 0 0 0 0 0 0 0 0 0 0 0 0 0 0 0 0 0 0 0 0 0 0 0
0 0 0 0 0 0 0 0 0 0 0 0 0 -0 -0 0 0 0 0 0 0 0 0 0 0 0 0 0 0 0 0 0 0 0 0 0 0 0 0 0 0 0 0 0 0 0 0 0 0
0 0 0 0 0 0 0 0 0 0 0 0 0 -0 -0 0 0 0 0 0 0 0 0 0 0 0 0 0 0 0 0 0 0 0 0 0 0 0 0 0 0 0 0 0 0 0 0 0 0
0 0 0 0 0 0 0 0 0 0 0 0 0 -0 -0 0 0 0 0 0 0 0 0 0 0 0 0 0 0 0 0 0 0 0 0 0 0 0 0 0 0 0 0 0 0 0 0 0 0
0 0 0 0 0 0 0 0 0 0 0 0 0 0 -0 0 0 0 0 0 0 0 0 0 0 0 0 0 0 0 0 0 0 0 0 0 0 0 0 0 0 0 0 0 0 0 0 0 0
0 0 0 0 0 0 0 0 0 0 0 0 0 0 0 0 0 0 0 0 0 0 0 0 0 0 0 0 0 0 0 0 0 0 0 0 0 0 0 0 0 0 0 0 0 0 0 0 0
0 0 0 0 0 0 0 0 0 0 0 0 0 0 0 0 0 0 0 0 0 0 0 0 0 0 0 0 0 0 0 0 0 0 0 0 0 0 0 0 0 0 0 0 0 0 0 0 0
Wind_Speed
3 3 3 4 6 6 3 2 1 2 3 2 4 6 6 4 2 2 2 0 0 1 3 2 4 5 6 7 8 8 8 9 9 9 10 10 10 10 10 10 10 10 10 10 10 10 10 10 10
1 2 4 5 6 4 2 2 2 2 3 3 4 5 5 4 2 2 1 1 1 1 2 2 5 6 7 7 7 7 8 9 9 9 9 9 9 10 10 10 10 10 10 10 10 10 10 10 10
2 3 5 5 5 3 2 0 2 3 3 3 4 4 4 2 1 1 1 1 2 2 2 2 6 7 7 7 7 7 7 8 9 9 9 9 10 10 10 10 10 10 10 11 10 10 11 11 12
3 5 6 6 5 1 1 1 3 4 3 4 4 4 3 2 2 2 1 3 3 2 2 2 6 7 7 7 7 7 7 8 8 9 9 9 10 10 10 10 10 10 11 11 11 11 11 12 12
4 5 7 5 3 2 1 1 1 3 3 3 4 4 3 4 2 3 3 3 3 1 2 2 5 6 7 7 7 7 7 8 8 8 8 9 9 9 9 9 10 10 10 11 11 11 12 12 12
5 5 6 3 2 2 2 2 3 4 4 3 4 3 1 2 2 3 3 2 2 2 3 3 4 5 6 6 7 7 7 8 8 8 8 8 8 9 9 9 9 10 10 11 11 11 12 12 12
5 5 4 3 2 2 1 2 3 3 3 2 3 4 1 0 1 2 3 3 2 2 3 3 4 4 5 6 7 7 7 7 7 7 7 8 8 8 8 8 9 9 10 10 11 12 12 12 12
4 6 4 2 3 1 0 1 2 3 2 2 3 5 3 4 2 3 3 3 2 2 2 2 3 3 4 4 6 7 7 7 7 7 7 8 8 8 8 8 8 9 10 11 11 12 12 12 12
4 6 3 2 3 1 1 2 2 3 4 2 2 2 3 5 5 4 3 2 1 1 1 2 2 2 3 3 4 6 7 8 7 6 8 8 5 5 5 7 9 10 11 11 12 12 12 12 11
5 4 2 2 4 3 2 2 2 4 3 2 3 3 5 6 6 4 3 2 1 1 1 0 1 1 2 2 3 3 3 4 4 3 4 4 4 4 5 8 10 11 11 11 12 12 11 8 5
4 4 1 1 2 3 3 2 2 5 1 3 5 6 6 5 4 4 3 3 2 2 1 0 1 0 1 1 2 2 2 2 3 3 3 3 3 3 4 3 4 5 7 5 6 7 5 5 4
4 2 2 1 2 3 3 3 3 2 2 3 6 8 7 6 5 5 4 3 2 1 1 1 1 1 1 1 1 1 1 1 2 2 3 2 2 2 2 2 3 3 2 3 4 3 4 5 5
4 2 2 3 4 3 4 3 3 1 1 4 7 7 6 6 5 3 2 2 2 2 2 1 1 1 1 1 1 2 1 1 1 2 2 2 2 2 2 2 2 3 3 3 4 4 5 5 5
2 3 3 2 3 2 4 2 3 0 3 6 6 5 5 5 4 2 2 2 3 2 2 2 2 2 2 2 1 1 1 1 2 2 2 2 2 2 2 2 3 3 2 3 3 4 4 4 4
3 4 4 3 2 1 4 2 1 2 4 5 4 4 3 3 3 4 4 4 4 3 2 2 3 2 3 2 1 1 1 2 2 1 1 2 2 2 2 2 2 2 2 3 4 4 4 4 4
4 4 2 3 1 1 4 2 3 2 5 4 3 3 3 3 3 4 4 3 3 3 2 2 2 3 3 2 2 1 2 2 1 1 1 2 2 3 3 2 2 2 2 3 3 3 4 4 3
4 2 1 3 1 2 2 3 3 2 4 4 3 3 3 3 3 3 3 4 4 4 3 2 2 3 3 3 2 2 2 2 1 1 1 1 2 3 3 2 2 2 3 2 3 3 3 3 3
2 1 1 2 2 2 1 3 3 1 4 3 3 3 3 4 6 4 3 3 3 3 3 3 3 3 3 3 2 2 2 2 1 1 1 1 2 3 3 2 2 2 3 3 3 3 3 3 2
3 2 1 3 2 2 2 4 4 2 2 3 3 3 4 6 4 2 2 2 3 3 3 3 3 3 3 2 2 1 0 1 1 1 1 1 2 2 3 2 2 2 2 2 3 3 3 2 2
2 1 1 2 1 2 1 4 4 2 4 5 5 5 6 4 2 2 2 2 3 3 4 4 4 4 3 2 2 1 1 1 0 1 2 2 2 2 2 3 2 2 3 3 2 2 2 1 1
1 3 3 2 2 3 1 4 3 2 2 2 3 4 4 5 5 4 4 4 3 4 4 4 4 4 3 3 3 3 3 2 2 2 1 2 1 2 2 2 2 2 2 3 2 2 3 2 1
2 3 3 2 2 2 1 3 6 3 3 2 3 3 4 4 4 4 5 4 5 5 4 4 4 3 3 4 3 4 3 1 1 0 0 1 2 2 2 2 2 2 2 2 2 2 2 3 2
3 0 2 2 3 1 1 1 7 3 3 4 4 4 4 3 4 4 5 5 4 4 4 3 4 3 3 4 4 4 2 2 1 1 1 2 2 2 1 2 2 2 1 2 2 2 2 2 2
2 5 5 5 4 1 2 2 6 3 4 3 3 3 3 2 3 3 2 2 2 2 3 3 3 3 3 4 4 4 4 3 2 1 1 1 1 1 1 1 1 1 1 1 2 2 2 2 2
5 6 4 5 4 4 2 2 6 4 3 3 3 3 2 1 1 2 2 2 3 3 3 3 4 3 3 4 4 4 4 4 4 3 2 1 0 0 1 1 1 1 1 1 1 2 2 2 2
2 6 6 3 3 4 2 3 5 3 3 1 1 1 1 1 0 2 3 3 3 4 4 4 4 3 3 4 4 3 3 3 2 3 2 2 2 1 1 1 1 1 1 1 1 1 1 1 2
3 2 4 5 1 1 4 5 5 2 3 3 3 3 2 1 1 1 2 3 3 3 4 4 4 3 3 3 3 2 3 3 3 3 2 2 2 1 2 1 1 1 1 1 2 1 1 1 1
3 6 4 4 3 2 5 4 4 3 3 3 2 2 2 2 2 1 1 2 3 3 3 3 4 4 3 3 3 3 3 3 3 3 3 2 2 2 2 2 2 1 1 1 2 1 1 1 1
2 3 4 3 4 4 2 6 4 4 3 3 2 2 2 2 2 1 1 1 2 2 2 2 3 2 2 3 3 2 3 3 3 3 3 3 2 3 3 2 2 2 2 2 2 1 2 2 1
2 4 5 3 2 3 3 7 4 2 3 2 2 2 2 2 1 1 1 2 1 1 2 2 2 3 3 3 3 3 2 3 3 3 3 3 3 3 3 3 3 2 2 2 3 2 2 2 2
Wind_Direction
357 52 77 59 56 54 54 14 74 58 54 43 55 73 84 73 83 123 281 265 286 324 331 342 60 67 71 77 74 72 74 76 79 79 80 79 80 80 82 80 78 74 70 68 67 69 70 70 69
48 68 57 59 75 73 34 355 88 87 130 120 67 68 71 67 68 102 321 281 44 12 359 36 79 77 75 78 80 77 77 79 82 82 82 80 78 79 83 79 77 73 70 68 67 67 68 70 72
79 55 75 66 75 111 119 46 107 90 103 93 75 58 72 76 90 149 247 146 73 42 32 60 81 79 81 80 80 77 79 82 82 82 81 79 78 79 81 78 74 72 70 67 67 67 69 71 73
76 46 54 66 73 53 131 123 121 113 76 57 89 69 55 35 154 174 135 107 87 45 28 60 84 80 84 84 82 81 85 83 83 84 84 81 79 78 76 75 73 70 70 66 67 70 72 73 75
61 71 62 58 49 20 31 73 95 97 81 63 85 83 32 357 75 117 115 111 102 54 23 38 79 76 75 81 83 84 86 85 84 84 84 82 78 77 75 73 72 71 69 66 66 69 73 75 75
55 63 77 77 51 21 17 32 83 78 87 84 85 86 44 10 97 119 113 108 94 68 33 28 47 65 68 72 77 81 85 84 83 81 81 78 78 77 75 72 72 71 68 67 69 69 73 74 74
90 81 94 108 89 46 47 56 88 97 88 105 115 97 75 296 188 128 102 90 70 52 44 28 19 30 49 61 65 71 77 78 81 81 75 73 71 70 70 69 69 70 69 72 73 74 72 73 72
108 93 80 84 105 92 77 78 84 98 98 97 105 130 178 204 159 103 81 70 66 49 38 30 20 21 26 31 52 62 63 65 68 72 67 61 54 55 61 63 66 70 73 75 74 75 74 72 70
79 76 103 161 153 165 128 90 52 65 90 67 75 145 172 136 123 105 80 48 41 33 18 15 11 13 22 26 45 50 50 48 48 50 53 47 31 28 40 61 65 72 75 73 74 74 71 68 64
74 99 169 190 166 152 122 106 114 83 73 68 68 70 104 120 133 142 152 171 201 267 308 9 343 356 16 29 42 35 40 38 38 37 38 39 32 30 45 52 63 70 72 69 69 72 69 63 53
79 122 138 97 144 132 113 89 99 114 110 194 168 151 139 140 152 168 181 189 205 220 251 201 215 352 38 32 34 30 31 32 33 36 41 50 42 33 39 41 42 47 58 53 55 60 59 60 57
81 68 113 117 115 110 118 110 91 119 216 203 163 149 149 160 175 187 190 192 183 179 212 188 173 128 77 63 44 47 42 40 37 26 41 59 55 44 43 47 42 44 48 58 57 64 65 66 60
71 63 50 71 82 98 92 88 109 60 60 104 117 132 156 174 190 202 193 185 172 183 208 205 172 157 123 90 71 79 65 70 60 46 51 72 71 60 54 53 52 52 57 66 68 70 70 67 60
82 72 55 57 72 73 99 68 79 145 109 113 128 150 173 187 192 183 185 191 185 190 203 194 169 161 124 111 106 101 92 82 72 67 62 71 80 76 69 66 60 57 59 73 78 78 75 67 63
71 65 29 20 57 82 99 38 281 190 127 136 154 168 182 205 199 200 202 198 189 190 191 183 172 146 132 130 116 99 89 87 84 79 72 75 86 88 84 76 69 63 71 82 80 74 71 71 65
54 59 21 320 34 80 109 252 281 149 140 161 183 189 200 223 222 222 207 202 192 176 178 186 151 137 139 128 110 95 90 90 85 75 71 74 86 95 90 83 73 70 81 86 88 77 75 68 66
36 67 289 311 349 109 134 251 300 145 148 177 200 211 216 237 255 243 217 204 193 180 169 159 139 138 135 120 104 90 80 76 68 59 65 82 93 99 102 96 89 86 88 84 95 75 83 84 77
206 200 254 275 294 113 164 259 294 185 171 204 220 229 230 232 242 239 218 197 184 167 156 149 137 131 121 104 85 70 61 47 45 49 38 79 98 107 112 110 102 94 93 82 88 91 76 83 84
157 164 238 263 254 142 215 262 281 220 196 220 229 232 239 243 250 240 209 174 159 150 150 154 144 140 129 115 115 109 99 24 21 19 32 53 90 113 119 116 105 102 106 111 114 108 90 73 78
129 151 259 300 326 154 226 280 282 220 211 213 215 223 231 244 252 220 201 183 180 174 172 165 165 159 160 149 136 131 120 92 67 12 32 38 85 109 128 129 127 120 115 108 110 118 112 89 72
211 192 207 231 359 29 40 324 305 288 244 238 230 226 224 218 221 216 202 200 189 186 187 183 182 173 167 143 108 81 59 39 26 17 9 3 54 86 105 128 126 127 131 140 145 141 134 141 74
248 235 190 166 105 312 46 299 293 293 307 272 261 250 235 229 220 213 205 202 202 200 186 180 173 173 165 149 140 134 139 160 219 232 317 25 48 74 88 115 122 133 134 143 157 140 133 139 142
221 51 114 124 134 32 4 204 288 327 295 282 268 254 240 222 208 210 208 205 201 186 176 172 160 169 167 158 157 150 148 164 143 80 68 48 34 46 72 104 114 125 139 152 149 138 135 142 149
120 69 56 48 71 353 258 184 284 267 255 283 288 276 254 230 215 210 205 182 178 160 159 153 153 169 163 160 160 163 164 157 136 119 102 50 30 24 34 79 103 123 130 150 162 155 148 149 139
69 79 33 8 14 265 276 197 255 270 265 247 263 287 284 238 188 184 176 179 183 171 169 165 163 176 171 166 170 176 174 169 172 176 174 165 130 32 339 80 109 114 136 141 139 145 155 151 143
119 130 149 192 228 284 319 243 259 291 310 299 301 322 7 14 171 198 197 189 192 187 174 167 172 181 174 175 182 181 177 176 186 186 180 184 189 198 182 154 152 146 132 126 127 132 160 138 154
121 127 155 134 160 279 288 291 302 358 11 16 17 20 353 322 250 219 200 182 185 188 185 176 172 180 186 185 180 180 185 187 192 190 184 186 192 188 166 158 149 141 137 142 138 135 157 143 163
116 137 98 113 145 265 296 287 265 295 306 329 343 329 322 338 338 326 244 196 188 186 179 164 166 180 189 187 185 186 195 196 192 178 184 193 199 187 166 161 158 152 146 151 145 146 162 137 178
81 89 99 112 150 161 264 276 234 234 240 247 273 281 290 306 309 315 315 267 176 151 148 161 169 177 187 199 195 187 192 189 180 185 196 198 196 185 184 182 174 168 167 156 143 154 152 154 168
159 157 142 147 212 173 189 266 273 249 236 221 262 288 298 300 302 334 2 23 74 142 159 173 179 190 202 199 191 191 189 180 185 199 204 195 195 198 196 184 178 183 180 170 166 172 165 166 179